Regional Weather Roundup
Issued by NWS

Home | Current Version | Previous Version | Graphics & Text | Print | Product List | Glossary On
Versions: 1 2 3 4 5 6 7 8 9 10 11 12 13 14 15 16 17 18 19 20 21 22 23 24 25 26 27
000
ASUS45 KCYS 130110
RWRWY

WYOMING REGIONAL WEATHER ROUNDUP
NATIONAL WEATHER SERVICE CHEYENNE WY
600 PM MST TUE DEC 12 2017

NOTE:  "FAIR" INDICATES FEW OR NO CLOUDS BELOW 12,000 FEET
WITH NO SIGNIFICANT WEATHER AND/OR OBSTRUCTIONS TO VISIBILITY.

WYZ001-130200-
YELLOWSTONE NATIONAL PARK

CITY           SKY/WX    TMP DP  RH WIND       PRES   REMARKS
LK YELLOWSTONE   N/A     18  15  88 NW3       30.38F
W YELLOWSTONE  NOT AVBL

$$
WYZ002>013-054>058-071-098>099-130200-
NORTHERN WYOMING

CITY           SKY/WX    TMP DP  RH WIND       PRES   REMARKS
JACKSON        FAIR      21  13  71 CALM      30.37F
CODY           FAIR      42  11  28 S6        30.16S
GREYBULL       FAIR      30  15  53 CALM      30.11F
WORLAND        FAIR      32  23  69 S8        30.12R WCI  25
SHERIDAN       FAIR      53  12  19 NW21      30.04S
BUFFALO        FAIR      52   9  17 NW10      30.07S
GILLETTE       FAIR      43  20  39 W14       30.03R
HULETT         FAIR      45  21  39 SW9       30.00S
NEWCASTLE      FAIR      39  19  45 N10       30.00S WCI  32

$$
WYZ014>020-022>026-101>103-130200-
CENTRAL WYOMING

CITY           SKY/WX    TMP DP  RH WIND       PRES   REMARKS
BIG PINEY      FAIR      25  -6  25 NW8       30.33F WCI  16
PINEDALE       FAIR      28   1  31 NW10      30.34F WCI  19
DUBOIS         FAIR      37   1  22 NW21G26   30.25F WCI  27
LANDER         FAIR      34  24  67 N3        30.16F
RIVERTON       FAIR      26  17  68 E5        30.17F WCI  20
CASPER         FAIR      44  18  35 SW23G33   30.13F
DOUGLAS        FAIR      40  21  46 NW10      30.10F WCI  33

$$
WYZ021-027>030-104>119-130200-
SOUTHERN WYOMING

CITY           SKY/WX    TMP DP  RH WIND       PRES   REMARKS
EVANSTON         N/A     39  10  30 W10       30.38F WCI  32
FORT BRIDGER   FAIR      44   6  21 SW13      30.38S
ROCK SPRINGS   FAIR      43  -2  15 SW18      30.30F
DIXON          FAIR      25  17  72 NE5       30.36S WCI  19
RAWLINS        FAIR      38  15  39 CALM      30.27F
SARATOGA       FAIR      30  21  69 W7        30.31S WCI  23
LARAMIE        FAIR      31   6  35 W10       30.23F WCI  22
CHEYENNE       FAIR      47  11  23 W22       30.16F
TORRINGTON     FAIR      49  15  25 W9        30.05F
PINE BLUFFS    FAIR      50   9  18 MISG      30.11F

$$




USA.gov is the U.S. government's official web portal to all federal, state and local government web resources and services.